STARLINK-36120

Last updated on Fri Dec 19 2025 00:02:09 GMT+0000 (Coordinated Universal Time)

1 67016U 25293P 25351.83335648 -.01011241 32822-3 -22172-2 0 9995 2 67016 69.9934 309.0119 0004117 266.5433 132.3706 15.97945099 2380
UTC large
Height (km)
Speed (km/s)
/
Latitude / Longitude
Inclination (degrees)
Orbital Period (minutes)
Azimuth
Elevation
Range (km)
Doppler Factor

Next 0 passes for location: London (51.5072 / 0.1276)

Sorry there are no passes over London.